Location: Harrisburg
(40.2740°N, 76.8850°W)
Time: 09:02:38
(UTC-04:00)

Tiangong 2 - Visible Passes

Search period start: 25 May 2018 00:00
Search period end: 04 June 2018 00:00
Orbit: 382 x 385 km, 42.8° (Epoch: 25 May)

Date Brightness Start Highest point End Pass type
(mag) Time Alt. Az. Time Alt. Az. Time Alt. Az.
25 May 1.8 22:20:47 10° W 22:23:53 50° N 22:25:10 29° ENE visible
26 May 1.7 21:20:53 10° W 21:23:59 56° N 21:27:06 10° ENE visible
26 May 2.0 22:57:48 10° WNW 23:00:16 47° NW 23:00:16 47° NW visible
27 May 1.7 21:57:57 10° WNW 22:01:02 52° N 22:03:05 19° ENE visible
27 May 3.9 23:34:42 10° WNW 23:35:16 14° WNW 23:35:16 14° WNW visible
28 May 1.9 20:58:03 10° W 21:01:08 50° N 21:04:14 10° ENE visible
28 May 1.0 22:34:52 10° WNW 22:38:02 83° NNE 22:38:02 83° NNE visible
29 May 1.4 21:35:01 10° WNW 21:38:10 62° N 21:40:46 14° E visible
29 May 3.4 23:11:52 10° W 23:12:57 19° W 23:12:57 19° W visible
30 May 1.0 22:11:55 10° WNW 22:15:03 65° SSW 22:15:40 50° SE visible
31 May 1.1 21:12:04 10° WNW 21:15:14 82° NNE 21:18:23 10° ESE visible
31 May 3.2 22:49:10 10° W 22:50:35 19° WSW 22:50:35 19° WSW visible
01 Jun 1.8 21:49:02 10° W 21:52:00 39° SSW 21:53:20 25° SSE visible
02 Jun 3.5 22:26:55 10° WSW 22:28:17 13° SW 22:28:17 13° SW visible
03 Jun 2.7 21:26:16 10° W 21:28:52 23° SSW 21:31:06 12° SSE visible
